Погода в Каролине

Пуэрто-Рико     18°23′53″N   65°58′40″W
темп.,
°C
ветер,
м/с
пор.,
м/с
влажн.,
%
обл.,
%
осадки,
мм/ч
давл.,
гПа
погр.,
м
9 августа, вт
вт923:00+27в711795 0.0 10161014
02:00+27в710811 0.1 1015839
05:00+27в697871 0.2 1015848
08:00+28в586992 0.3 1016898
11:00+29всв686615 0.1 10171006
14:00+29всв8872100 0.1 10161100
17:00+28всв7876100 0.2 1015943
20:00+27всв898023 0.7 1017786
10 августа, ср
ср1023:00+27в7982100 0.6 1017738
02:00+26в6781100 1.0 1015660
05:00+26вюв5781100 0.4 1016684
08:00+27вюв5673100 0.6 1017865
11:00+29в676597 0.0 10171179
14:00+29в7765100 0.0 10161075
17:00+28в7771100 0.0 1015976
20:00+27в6777100 0.1 1017685
11 августа, чт
чт1123:00+27в688092 0.1 1017634
02:00+26вюв5780100 0.2 1015748
05:00+26вюв578196 0.1 1015700
08:00+27в6775100 0.3 1016857
11:00+29в776864 0.3 10161157
14:00+29в786891 0.6 10151093
17:00+29в677098 0.0 10141014
20:00+27в577978 0.2 1016672
12 августа, пт
пт1223:00+27вюв578098 1.8 1016666
02:00+26вюв678099 2.2 1015695
05:00+26вюв578296 0.1 1015672
08:00+27вюв677596 0.1 1016802
11:00+29в776528 0.1 10161164
14:00+29в876714 0.1 10151089
17:00+28в77683 0.0 1014923
20:00+27в57777 0.0 1015729
13 августа, сб
сб1323:00+26в67785 0.0 1016771
02:00+26вюв467849 0.0 1015783
05:00+26в4676100 0.1 1015815
08:00+28в787529 0.2 1016884
11:00+29в787079 0.3 10161085
14:00+29в77663 0.3 10141126
17:00+29в776950 0.0 10141037
20:00+27в578091 0.1 1015675